www.pogodaiklimat.ru

Погода и климат >> Архив погоды >> Россия >> Якутия >> Чернышевский


ПОГОДА в Чернышевском

  • Прогноз погоды в Чернышевском
  • Монитор погоды в Чернышевском

АРХИВ ПОГОДЫ в Чернышевском

Время (UTC), дата Ветер
(напр.,м/с)
 
Видим.   Явления Облачность Т
(С)
Тd
(С)
f
(%)
Тe
(С)
Тes
(С)
Комфортность P
(гПа)
Po
(гПа)
Тmin
(С)
Tmax
(С)
R
(мм)
R24
(мм)
S
(см)
09 12.04 З 6-11
{14}
50 км позёмок 10/4 600 м
[Sc Ci fib]
-11.1 -22.0 40 -20 -19 1010.4 956.5
12 12.04 З 5-11
{11}
10 км слаб. ливневой снег {метель} 10/8 600 м
[Cb cap Ac trans Cs]
-12.5 -19.7 55 -21 -21 1011.9 957.7 -10.1 0.0
15 12.04 ЮЗ 3
{11}
10 км слаб. ливневой снег {метель} 10/8 600 м
[Cb cap Cs]
-14.9 -17.6 80 -21 -21 1012.7 958.0
18 12.04 ЮЗ 4 10 км слаб. ливневой снег {метель} 10/8 600 м
[Cb cap Cs]
-14.7 -16.7 85 -22 -22 1012.2 957.5
21 12.04 З 4 10 км слаб. ливневой снег {метель} 10/10 600 м
[Cb cap]
-14.6 -16.6 85 -22 -22 1012.2 957.5
00 13.04 З 4 10 км слаб. ливневой снег {метель} 10/8 600 м
[Cb cap Cs]
-14.0 -16.0 85 -22 -21 1012.0 957.4 -14.9 1 73
03 13.04 ЮЗ 4 10 км позёмок {ливн. осадки} 10/8 600 м
[Cb cap Ci fib]
-12.1 -16.4 70 -19 -18 1010.8 956.7
06 13.04 СЗ 4 50 км {ливн. осадки, метель} 10/4 600 м
[Cb cap Ac As Cc]
-9.0 -17.7 49 -16 -14 1009.7 956.3
09 13.04 СЗ 2 50 км 10/3 600 м
[Sc Ac cuf Ci fib]
-7.2 -16.6 47 -11 -10 1007.9 954.9
12 13.04 В 1 50 км 10/1 600 м
[Sc Ac As Ci fib]
-9.9 -15.8 62 -12 -12 1007.5 954.1 -6.7 0.2
15 13.04 СВ 3 50 км 4/0
[Ci fib]
-12.5 -15.2 80 -19 -19 1006.1 952.2
18 13.04 СВ 2 50 км 1/0
[Ci fib]
-14.8 -16.1 90 -20 -20 1005.1 950.8
21 13.04 СВ 2 50 км 3/0
[Ci fib]
-15.6 -16.9 90 -21 -21 1004.4 950.0
00 14.04 СВ 2 50 км [диам. изморози 14 мм] 3/0
[Ac trans Ci fib]
-15.1 -17.0 85 -20 -18 1004.6 950.3 -16.5 73
03 14.04 СВ 2 50 км 4/4 600 м
[Sc]
-10.0 -14.8 68 -14 -10 1003.5 950.2
06 14.04 ЮЗ 2 50 км 10/6 600 м
[Sc Ci fib]
-8.0 -15.4 55 -12 -10 1003.6 950.6
09 14.04 С 1 50 км 4/3 600 м
[Sc Ci fib]
-7.6 -18.1 43 -9 -7 1003.8 950.9
12 14.04 СВ 2 50 км 3/0
[Ac trans Ci fib]
-11.2 -20.8 45 -16 -16 1005.0 951.4 -6.2
15 14.04 СВ 2 50 км ясно -14.2 -22.4 50 -19 -19 1005.5 951.3
18 14.04 СВ 2 50 км ясно -15.6 -24.8 45 -21 -21 1006.0 951.5
21 14.04 СВ 2 50 км 1/0
[Ci fib]
-17.2 -25.2 50 -23 -23 1006.7 951.8
00 15.04 СВ 2 50 км ясно -15.1 -22.1 55 -20 -18 1007.3 952.8 -17.6 73
03 15.04 С 2 50 км ясно -10.8 -20.4 45 -15 -8 1007.1 953.5
06 15.04 С 2 50 км ясно -8.9 -21.6 35 -13 -5 1007.4 954.1
09 15.04 С 1 50 км ясно -8.2 -21.9 32 -10 -7 1009.7 955.5
12 15.04 С 1 50 км ясно -10.5 -23.0 35 -13 -13 1010.7 956.9 -7.7
15 15.04 СВ 1 50 км ясно -12.2 -24.6 35 -14 -14 1010.8 956.7
18 15.04 В 3 50 км ясно -13.3 -25.5 35 -20 -20 1011.2 956.9
21 15.04 ЮВ 2 50 км ясно -13.3 -24.0 40 -18 -18 1011.7 957.4
00 16.04 В 1 50 км ясно -11.8 -24.2 35 -14 -11 1011.8 957.8 -13.6 73
03 16.04 В 1 50 км ясно -8.8 -21.4 35 -11 -2 1011.2 957.8
06 16.04 В 1 50 км ясно -7.1 -20.3 34 -9 0 1010.6 957.5
09 16.04 ЮЗ 2 50 км 3/0
[Ci fib]
-6.5 -20.7 31 -10 -8 1011.1 958.1
12 16.04 штиль 0 50 км 1/0
[Ci fib]
-8.0 -22.5 30 -8 -8 1011.9 958.5 -4.6
15 16.04 В 1 50 км 6/0
[Ci fib]
-9.8 -22.7 34 -12 -12 1012.4 958.7
18 16.04 ЮВ 2 50 км 10/0
[Ci fib]
-10.0 -22.1 36 -14 -14 1013.2 959.4
21 16.04 СВ 1 50 км 10/0
[Ci fib]
-10.1 -22.7 35 -12 -12 1014.7 960.8
00 17.04 С 1 50 км 10/0
[Cs]
-7.9 -22.3 30 -10 -7 1015.6 962.1 -10.6 72
03 17.04 С 1 50 км 3/0
[Ci fib]
-6.0 -20.4 31 -8 +1 1016.1 962.9
06 17.04 СЗ 2 50 км 3/1 1000 м
[Cu hum Ci fib]
-3.6 -19.7 27 -7 0 1016.0 963.3
09 17.04 З 1 50 км 1/1 1000 м
[Cu hum]
-3.2 -18.5 30 -4 -2 1016.3 963.7
12 17.04 Ю 2 50 км 3/0
[Ci fib]
-4.8 -19.2 31 -8 -8 1017.0 964.1 -2.6
15 17.04 Ю 2 50 км ясно -7.4 -22.0 30 -11 -11 1017.9 964.4
18 17.04 Ю 3 50 км ясно -8.4 -22.5 31 -14 -14 1018.1 964.4
21 17.04 Ю 4 50 км 10/0
[Ci fib]
-8.8 -22.4 32 -15 -15 1017.3 963.6
00 18.04 Ю 3 50 км 10/0
[Cs]
-5.8 -18.2 37 -11 -9 1015.8 962.7 -8.9 71
03 18.04 Ю 3 50 км 10/0
[Cs]
-1.1 -14.3 36 -5 0 1013.1 961.0
06 18.04 Ю 5
{11}
50 км 10/0
[Ac trans Cc]
-0.4 -14.8 33 -6 -3 1010.4 958.6
09 18.04 ЮВ 5
{10}
50 км 8/0
[Ac trans Cc]
+1.2 -14.3 30 -3 -2 1008.5 957.1
12 18.04 ЮВ 3 50 км 6/0
[Ci fib]
-1.1 -15.7 32 -5 -5 1008.5 956.6 +1.6
15 18.04 В 4 50 км 3/0
[Ci fib]
-3.5 -16.9 35 -9 -9 1008.0 955.7
18 18.04 В 4 50 км ясно -6.2 -17.6 40 -12 -12 1006.4 953.7
21 18.04 В 5 50 км 6/0
[Ci fib]
-7.4 -17.7 43 -14 -14 1003.9 951.1
00 19.04 В 5 50 км 10/0
[Cs]
-6.0 -16.5 43 -13 -11 1001.7 949.3 -8.0 71
03 19.04 В 8-12
{13}
50 км позёмок 10/0
[Ac As Cs]
-2.9 -14.9 39 -10 -10 999.2 947.6
06 19.04 В 8-13
{14}
50 км позёмок 10/0
[Ac As Cs]
-0.3 -13.9 35 -7 -6 996.4 945.4

 

Местоположение метеостанции Чернышевский (Якутия, Россия): широта 63.03 долгота 112.40 высота над уровнем моря 422 м.

В архиве по умолчанию представлена погода в Чернышевском за последнюю неделю. Архивные данные за месяц целиком и за предыдущие месяцы, начиная с января 2011 года, Вы можете получить, выбрав интересующий диапазон дат из раскрывающегося списка и нажав кнопку "Ввод!".


*Определитесь, кто Вы:
робот инопланетянин человек

Внимание! Время в таблицах - всемирное. Для получения местного времени необходимо прибавить поправку, которая равна 9 ч.

Смотрите также архив погоды в соседних городах и на ближайших метеорологических станциях:

Погода в Туой-Хае (Якутия, Россия) (83 км)
Погода в Мирном (Якутия, Россия) (90 км)
Погода в Хабардино (Якутия, Россия) (175 км)
Погода в Дорожном (Якутия, Россия) (194 км)
Погода в Крестяхе (Якутия, Россия) (207 км)
Погода в Чумпуруке (Якутия, Россия) (259 км)
Погода в Сунтаре (Якутия, Россия) (283 км)
Погода в Ленске (Якутия, Россия) (286 км)
Погода в Нюрбе (Якутия, Россия) (298 км)
Погода в Ербогачене (Иркутская область, Россия) (301 км)

Пояснения к столбцам:

Ветер - указаны скорость ветра в м/с - средняя за 10 мин, порывы в срок и между сроками (в фигурных скобках) и направление, откуда дует ветер: С - северный, СВ - северо-восточный, В - восточный, ЮВ - юго-восточный, Ю - южный, ЮЗ - юго-западный, З - западный, СЗ - северо-западный.
Видимость - горизонтальная дальность видимости в метрах или километрах. При видимости от 1 до 10 км при отсутствии осадков обычно наблюдается дымка, при ухудшении видимости до 1 км и менее - туман. В сухую погоду видимость может ухудшаться дымом, пылью или мглою.
Явления - указаны атмосферные явления, наблюдавшиеся в срок или в последний час перед сроком; фигурными скобками обозначены явления, наблюдавшиеся между сроками (за 1-3 часа до срока); квадратными скобками обозначены град или гололедные отложения с указанием их диаметра в мм.
Облачность - указаны через наклонную черту общая и нижняя облачность в баллах и высота нижней границы облаков в метрах; квадратными скобками обозначены формы облаков: Ci - перистые, Cs - перисто-слоистые, Cc - перисто-кучевые, Ac - высококучевые, As - высокослоистые, Sc - слоисто-кучевые, Ns - слоисто-дождевые, Cu - кучевые, Cb - кучево-дождевые. Подробнее классификацию облаков см. в Атласе облаков (PDF).
T - Температура воздуха - температура, измеренная на высоте 2 м над землей.
Td - Температура точки росы - температура, при понижении до которой содержащийся в воздухе водяной пар достигнет насыщения.
f - Относительная влажность воздуха - влажноcть воздуха, измеренная на высоте 2 м над землей.
Te - Эффективная температура - температура, которую ощущает одетый по сезону человек в тени. Характеристика душности погоды. При расчете учитывается влияние влажности воздуха и скорости ветра на теплоощущения человека.
Tes - Эффективная температура на солнце - температура, которую ощущает человек, с поправкой на солнечный нагрев. Характеристика знойности погоды. Зависит от высоты солнца над горизонтом, облачности и скорости ветра. Ночью, в пасмурную погоду, а также при ветре 12 м/с и более поправка равна нулю.
P - Атмосферное давление - приведенное к уровню моря атмосферное давление.
Po - Атмосферное давление - измеренное на уровне метеостанции атмосферное давление.
Tmin - Минимальная температура - минимум температуры воздуха на высоте 2 м над землей.
Tmax - Максимальная температура - максимум температуры воздуха на высоте 2 м над землей.
R - Количество осадков - Количество выпавших осадков за период времени, мм. При наведении курсора мыши на число - период времени, за который выпало указанное количество осадков.
R24 - Количество осадков - Количество выпавших осадков за 24 часа, мм.
S - Снежный покров - Высота снежного покрова, см. При наведении курсора мыши на число - состояние снежного покрова и степень покрытия местности в баллах.